User: anonymous   Login
Location: Unspecified
(0.0000°N, 0.0000°E)
Time: 01:46:13
(UTC+00:00)
Language:

Himawari 4 - Orbit

View from above orbital plane
View from above orbital plane
View from above satellite
View from above satellite

Ground track
Ground track

The orbit data is extracted from the following two-line orbital elements,

1 20217U 89070A   24108.89051326 -.00000165  00000-0  00000+0 0  9997
2 20217  15.1841 352.4287 0048531 126.2360  50.8293  0.97412631124834
Epoch (UTC): 17 April 2024 21:22:20
Eccentricity: 0.0048531
inclination: 15.1841°
perigee height: 36398 km
apogee height: 36816 km
right ascension of ascending node: 352.4287°
argument of perigee: 126.2360°
revolutions per day: 0.97412631
mean anomaly at epoch: 50.8293°
orbit number at epoch: 12483

The dashed part of the orbit path shows where the satellite is in the earth's shadow,  

DLR